Location: Newark
(42.7133°N, 87.7910°W)
Time: 07:20:53
(UTC+00:00)

Transit 2A - All Passes

Search period start: 20 September 2019 00:00
Search period end: 30 September 2019 00:00
Orbit: 599 x 960 km, 66.7° (Epoch: 19 September)

Date Brightness Start Highest point End Pass type
(mag) Time Alt. Az. Time Alt. Az. Time Alt. Az.
20 Sep - 06:57:46 10° SSE 07:01:40 18° ESE 07:05:22 10° ENE visible
20 Sep - 08:38:34 10° SW 08:44:26 71° WNW 08:49:46 10° NNE visible
20 Sep - 10:25:26 10° WNW 10:28:28 15° NW 10:31:22 10° N visible
20 Sep - 15:43:14 10° N 15:46:09 16° NE 15:48:57 10° E daylight
20 Sep - 17:25:22 10° NW 17:29:51 69° WSW 17:34:08 10° SSE daylight
21 Sep - 06:25:33 10° SE 06:27:46 12° ESE 06:29:55 10° E visible
21 Sep - 08:04:24 10° SSW 08:10:19 83° ESE 08:15:41 10° NNE visible
21 Sep - 09:50:05 10° W 09:54:03 19° NW 09:57:47 10° N visible
21 Sep - 15:09:53 10° NNE 15:11:42 12° NE 15:13:30 10° ENE daylight
21 Sep - 16:51:13 10° NNW 16:55:46 76° ENE 17:00:04 10° SE daylight
21 Sep - 18:37:45 10° W 18:38:07 10° WSW 18:38:27 10° WSW daylight
22 Sep - 07:30:27 10° SSW 07:36:14 59° ESE 07:41:30 10° NE visible
22 Sep - 09:15:03 10° WSW 09:19:43 25° NW 09:24:03 10° N visible
22 Sep - 16:17:11 10° NNW 16:21:36 49° NE 16:25:49 10° SE daylight
22 Sep - 18:01:30 10° WNW 18:04:15 16° WSW 18:06:58 10° SW daylight
23 Sep - 06:56:43 10° S 07:02:11 41° ESE 07:07:12 10° NE visible
23 Sep - 08:40:15 10° WSW 08:45:26 34° NW 08:50:12 10° NNE visible
23 Sep - 15:43:15 10° NNW 15:47:23 33° NE 15:51:20 10° ESE daylight
23 Sep - 17:26:42 10° NW 17:30:20 25° WSW 17:33:54 10° SSW daylight
24 Sep - 06:23:15 10° SSE 06:28:10 28° ESE 06:32:45 10° NE visible
24 Sep - 08:05:39 10° SW 08:11:12 47° NW 08:16:16 10° NNE visible
24 Sep - 09:54:53 10° NW 09:55:35 10° NW 09:56:16 10° NNW visible
24 Sep - 15:09:24 10° N 15:13:06 24° NE 15:16:38 10° E daylight
24 Sep - 16:52:13 10° NW 16:56:23 39° WSW 17:00:24 10° S daylight
25 Sep - 05:50:08 10° SSE 05:54:12 20° ESE 05:58:03 10° ENE visible
25 Sep - 07:31:15 10° SW 07:37:02 66° WNW 07:42:15 10° NNE visible
25 Sep - 09:18:27 10° WNW 09:21:06 14° NW 09:23:39 10° N visible
25 Sep - 14:35:42 10° N 14:38:44 17° NE 14:41:40 10° E daylight
25 Sep - 16:17:56 10° NW 16:22:21 63° WSW 16:26:37 10° SSE daylight
26 Sep - 05:17:42 10° SE 05:20:17 13° ESE 05:22:48 10° ENE night (unlit)
26 Sep - 06:57:03 10° SSW 07:02:53 89° SE 07:08:11 10° NNE visible
26 Sep - 08:42:59 10° W 08:46:41 18° NW 08:50:10 10° N visible
26 Sep - 14:02:17 10° N 14:04:18 13° NE 14:06:19 10° ENE daylight
26 Sep - 15:43:47 10° NNW 15:48:17 83° ENE 15:52:35 10° SSE daylight
27 Sep - 06:23:03 10° SSW 06:28:48 63° ESE 06:34:02 10° NE visible
27 Sep - 08:07:52 10° W 08:12:19 24° NW 08:16:28 10° N visible
27 Sep - 15:09:43 10° NNW 15:14:08 54° NE 15:18:22 10° SE daylight
27 Sep - 16:54:16 10° WNW 16:56:44 15° WSW 16:59:09 10° SW daylight
28 Sep - 05:49:15 10° S 05:54:44 44° ESE 05:59:46 10° NE visible
28 Sep - 07:33:01 10° WSW 07:38:02 31° NW 07:42:39 10° NNE visible
28 Sep - 14:35:45 10° NNW 14:39:56 36° NE 14:43:56 10° ESE daylight
28 Sep - 16:19:21 10° WNW 16:22:49 23° WSW 16:26:14 10° SSW daylight
29 Sep - 05:15:43 10° S 05:20:43 30° ESE 05:25:21 10° NE night (unlit)
29 Sep - 06:58:22 10° SW 07:03:47 43° NW 07:08:44 10° NNE visible
29 Sep - 14:01:54 10° N 14:05:40 25° NE 14:09:16 10° ESE daylight
29 Sep - 15:44:49 10° NW 15:48:52 36° WSW 15:52:49 10° S daylight
